QPF
0.00 0.00 0.00 0.00 0.00 0.00 0.00 0.00 0.00 0.00 0.00 0.00 0.00 0.00 0.00 0.00 0.00 0.00 0.00 0.00 0.00 0.00 0.00 0.00 0.00 0.00 0.00 0.01 0.00 0.00 0.00 0.00 0.01 0.01 0.01 0.01 0.01 0.01 0.02 0.02 0.02 0.02 0.02 0.01
0.00 0.00 0.00 0.00 0.00 0.00 0.00 0.00 0.00 0.00 0.00 0.00 0.00 0.00 0.00 0.00 0.00 0.00 0.00 0.00 0.00 0.00 0.00 0.00 0.00 0.00 0.00 0.01 0.01 0.00 0.00 0.01 0.01 0.01 0.01 0.01 0.01 0.01 0.01 0.02 0.02 0.02 0.01 0.01
0.01 0.00 0.00 0.00 0.00 0.00 0.00 0.00 0.00 0.00 0.00 0.00 0.00 0.00 0.00 0.00 0.00 0.00 0.00 0.00 0.00 0.00 0.00 0.00 0.01 0.01 0.00 0.00 0.01 0.01 0.01 0.01 0.01 0.01 0.01 0.01 0.01 0.01 0.01 0.01 0.01 0.01 0.01 0.01
0.01 0.00 0.00 0.00 0.00 0.00 0.00 0.00 0.00 0.00 0.00 0.00 0.00 0.00 0.00 0.00 0.00 0.00 0.00 0.00 0.00 0.00 0.00 0.01 0.01 0.00 0.00 0.00 0.01 0.01 0.01 0.01 0.01 0.01 0.01 0.01 0.01 0.01 0.00 0.00 0.00 0.00 0.00 0.00
0.02 0.01 0.00 0.01 0.01 0.00 0.00 0.00 0.00 0.00 0.00 0.00 0.00 0.00 0.00 0.00 0.00 0.00 0.00 0.00 0.00 0.00 0.00 0.00 0.00 0.00 0.00 0.00 0.01 0.01 0.02 0.01 0.01 0.01 0.01 0.01 0.00 0.00 0.00 0.00 0.00 0.00 0.00 0.00
0.01 0.01 0.00 0.00 0.00 0.00 0.00 0.00 0.00 0.00 0.00 0.00 0.00 0.00 0.00 0.00 0.00 0.00 0.00 0.00 0.00 0.00 0.00 0.00 0.00 0.00 0.00 0.00 0.01 0.01 0.01 0.01 0.01 0.01 0.01 0.00 0.00 0.00 0.00 0.00 0.00 0.00 0.00 0.00
0.01 0.01 0.00 0.00 0.00 0.00 0.00 0.00 0.00 0.00 0.00 0.00 0.00 0.00 0.00 0.00 0.00 0.00 0.00 0.00 0.00 0.00 0.00 0.00 0.00 0.00 0.01 0.00 0.01 0.01 0.01 0.01 0.01 0.01 0.01 0.00 0.00 0.00 0.00 0.00 0.00 0.00 0.00 0.00
0.00 0.01 0.00 0.00 0.00 0.00 0.00 0.00 0.00 0.00 0.00 0.00 0.00 0.00 0.00 0.00 0.00 0.00 0.00 0.00 0.00 0.00 0.00 0.00 0.00 0.01 0.01 0.01 0.01 0.01 0.01 0.01 0.01 0.00 0.00 0.00 0.00 0.00 0.00 0.00 0.00 0.00 0.00 0.01
0.00 0.00 0.00 0.00 0.00 0.00 0.00 0.00 0.00 0.00 0.00 0.00 0.00 0.00 0.00 0.00 0.00 0.00 0.00 0.00 0.00 0.00 0.00 0.01 0.01 0.01 0.01 0.01 0.01 0.01 0.01 0.01 0.00 0.00 0.00 0.00 0.00 0.00 0.00 0.01 0.01 0.01 0.01 0.01
0.00 0.00 0.00 0.00 0.00 0.00 0.00 0.00 0.00 0.00 0.00 0.00 0.00 0.00 0.00 0.00 0.00 0.00 0.00 0.00 0.00 0.01 0.01 0.01 0.01 0.01 0.01 0.01 0.01 0.01 0.00 0.00 0.00 0.00 0.00 0.00 0.00 0.00 0.00 0.01 0.01 0.01 0.01 0.01
0.00 0.00 0.00 0.00 0.00 0.00 0.00 0.00 0.00 0.00 0.00 0.00 0.00 0.00 0.00 0.00 0.00 0.00 0.00 0.00 0.00 0.01 0.01 0.01 0.01 0.01 0.01 0.01 0.01 0.01 0.00 0.00 0.00 0.00 0.00 0.00 0.00 0.00 0.00 0.01 0.01 0.01 0.01 0.01
0.00 0.00 0.00 0.00 0.00 0.00 0.00 0.00 0.00 0.00 0.00 0.00 0.00 0.00 0.00 0.00 0.00 0.00 0.00 0.00 0.00 0.01 0.01 0.01 0.01 0.01 0.01 0.01 0.00 0.00 0.00 0.00 0.00 0.00 0.00 0.00 0.00 0.00 0.00 0.00 0.01 0.01 0.01 0.00
0.00 0.00 0.00 0.00 0.00 0.00 0.00 0.00 0.00 0.00 0.00 0.00 0.00 0.00 0.00 0.00 0.00 0.00 0.00 0.00 0.00 0.01 0.01 0.01 0.01 0.01 0.01 0.00 0.00 0.00 0.00 0.00 0.00 0.00 0.00 0.00 0.00 0.00 0.00 0.00 0.01 0.00 0.00 0.00
0.00 0.00 0.00 0.00 0.00 0.00 0.00 0.00 0.00 0.00 0.00 0.00 0.00 0.00 0.00 0.00 0.00 0.00 0.00 0.00 0.00 0.01 0.01 0.01 0.01 0.01 0.01 0.00 0.00 0.00 0.00 0.00 0.00 0.00 0.00 0.00 0.01 0.00 0.00 0.00 0.00 0.00 0.00 0.00
0.00 0.00 0.00 0.00 0.00 0.00 0.00 0.00 0.00 0.00 0.00 0.00 0.00 0.00 0.00 0.00 0.00 0.00 0.00 0.00 0.00 0.01 0.01 0.01 0.01 0.01 0.01 0.00 0.00 0.00 0.00 0.00 0.00 0.00 0.00 0.00 0.01 0.01 0.01 0.00 0.00 0.00 0.00 0.00
0.00 0.00 0.00 0.00 0.00 0.00 0.00 0.00 0.00 0.00 0.00 0.00 0.00 0.00 0.00 0.00 0.00 0.00 0.00 0.00 0.01 0.01 0.01 0.01 0.01 0.01 0.01 0.01 0.00 0.00 0.00 0.01 0.01 0.01 0.01 0.01 0.01 0.00 0.00 0.00 0.00 0.00 0.00 0.00
0.00 0.00 0.00 0.00 0.00 0.00 0.00 0.00 0.00 0.00 0.00 0.00 0.00 0.00 0.00 0.00 0.00 0.00 0.00 0.00 0.01 0.01 0.01 0.01 0.01 0.01 0.01 0.01 0.01 0.01 0.01 0.01 0.01 0.01 0.01 0.01 0.01 0.01 0.01 0.00 0.00 0.00 0.00 0.00
0.00 0.00 0.00 0.00 0.00 0.00 0.00 0.00 0.00 0.00 0.00 0.00 0.00 0.00 0.00 0.00 0.00 0.00 0.00 0.00 0.00 0.01 0.01 0.01 0.01 0.02 0.02 0.02 0.02 0.02 0.02 0.02 0.02 0.01 0.01 0.01 0.01 0.01 0.01 0.01 0.01 0.01 0.00 0.00
0.00 0.00 0.00 0.00 0.00 0.00 0.00 0.00 0.00 0.00 0.00 0.00 0.00 0.00 0.00 0.00 0.00 0.00 0.00 0.00 0.00 0.00 0.00 0.00 0.01 0.01 0.01 0.02 0.02 0.02 0.02 0.02 0.02 0.02 0.01 0.01 0.01 0.01 0.01 0.01 0.01 0.01 0.00 0.00
0.00 0.00 0.00 0.00 0.00 0.00 0.00 0.00 0.00 0.00 0.00 0.00 0.00 0.00 0.00 0.00 0.00 0.00 0.00 0.00 0.00 0.00 0.00 0.00 0.00 0.00 0.00 0.00 0.01 0.01 0.01 0.01 0.01 0.01 0.01 0.01 0.01 0.01 0.01 0.01 0.01 0.01 0.00 0.00
0.00 0.00 0.00 0.00 0.00 0.00 0.00 0.00 0.00 0.00 0.00 0.00 0.00 0.00 0.00 0.00 0.00 0.00 0.00 0.00 0.00 0.00 0.00 0.00 0.00 0.00 0.00 0.00 0.00 0.00 0.01 0.01 0.01 0.01 0.01 0.01 0.01 0.01 0.01 0.01 0.01 0.01 0.00 0.00
0.00 0.00 0.00 0.00 0.00 0.00 0.00 0.00 0.01 0.01 0.00 0.00 0.00 0.00 0.00 0.00 0.00 0.00 0.00 0.00 0.00 0.00 0.00 0.00 0.00 0.00 0.00 0.00 0.00 0.00 0.00 0.01 0.01 0.01 0.01 0.01 0.01 0.01 0.01 0.01 0.01 0.01 0.00 0.00
0.00 0.00 0.00 0.00 0.00 0.00 0.00 0.00 0.01 0.01 0.00 0.00 0.00 0.00 0.00 0.00 0.00 0.00 0.00 0.00 0.00 0.00 0.00 0.00 0.00 0.00 0.00 0.00 0.00 0.00 0.00 0.01 0.01 0.01 0.01 0.01 0.01 0.01 0.01 0.01 0.01 0.00 0.00 0.00
0.00 0.00 0.00 0.00 0.00 0.00 0.00 0.00 0.01 0.01 0.00 0.00 0.00 0.00 0.00 0.00 0.00 0.00 0.00 0.00 0.00 0.00 0.00 0.00 0.00 0.00 0.00 0.00 0.00 0.01 0.01 0.01 0.01 0.01 0.01 0.01 0.01 0.01 0.01 0.01 0.00 0.00 0.00 0.00
0.00 0.00 0.00 0.00 0.00 0.00 0.01 0.01 0.01 0.01 0.01 0.00 0.00 0.00 0.00 0.00 0.00 0.00 0.00 0.00 0.00 0.00 0.00 0.00 0.00 0.00 0.00 0.01 0.01 0.01 0.01 0.01 0.01 0.01 0.01 0.01 0.01 0.01 0.01 0.01 0.00 0.00 0.00 0.00
0.00 0.00 0.00 0.00 0.00 0.00 0.01 0.01 0.01 0.01 0.01 0.01 0.00 0.00 0.00 0.00 0.00 0.00 0.00 0.00 0.00 0.00 0.00 0.00 0.00 0.00 0.01 0.01 0.01 0.01 0.01 0.01 0.01 0.01 0.01 0.01 0.01 0.01 0.01 0.01 0.00 0.00 0.00 0.00
0.00 0.00 0.00 0.00 0.00 0.00 0.00 0.00 0.01 0.01 0.01 0.01 0.00 0.00 0.00 0.00 0.00 0.00 0.00 0.00 0.00 0.00 0.00 0.00 0.00 0.01 0.01 0.01 0.01 0.01 0.01 0.01 0.01 0.01 0.01 0.01 0.01 0.01 0.01 0.01 0.00 0.00 0.00 0.00
MSLP
1020.57 1020.49 1020.34 1020.11 1019.80 1019.41 1018.93 1018.37 1017.77 1017.14 1016.51 1015.93 1015.42 1015.00 1014.68 1014.45 1014.30 1014.21 1014.15 1014.09 1014.03 1013.96 1013.88 1013.82 1013.79 1013.81 1013.88 1014.02 1014.21 1014.43 1014.65 1014.85 1015.00 1015.09 1015.10 1015.05 1014.94 1014.80 1014.63 1014.45 1014.26 1014.07 1013.87 1013.66
1020.47 1020.30 1020.05 1019.72 1019.31 1018.84 1018.32 1017.76 1017.19 1016.63 1016.10 1015.63 1015.23 1014.91 1014.66 1014.47 1014.32 1014.20 1014.09 1013.96 1013.82 1013.68 1013.54 1013.42 1013.34 1013.33 1013.37 1013.48 1013.64 1013.83 1014.02 1014.20 1014.34 1014.43 1014.47 1014.47 1014.44 1014.38 1014.32 1014.24 1014.16 1014.07 1013.97 1013.84
1020.34 1020.07 1019.71 1019.28 1018.79 1018.26 1017.71 1017.17 1016.65 1016.17 1015.75 1015.39 1015.10 1014.87 1014.69 1014.54 1014.39 1014.25 1014.08 1013.89 1013.69 1013.48 1013.29 1013.13 1013.01 1012.97 1012.98 1013.06 1013.18 1013.33 1013.49 1013.63 1013.74 1013.83 1013.89 1013.93 1013.95 1013.97 1013.99 1014.01 1014.02 1014.01 1013.97 1013.89
1020.17 1019.79 1019.33 1018.82 1018.27 1017.71 1017.16 1016.65 1016.19 1015.80 1015.48 1015.23 1015.03 1014.88 1014.74 1014.61 1014.45 1014.27 1014.06 1013.82 1013.57 1013.32 1013.09 1012.90 1012.77 1012.70 1012.70 1012.75 1012.84 1012.94 1013.05 1013.15 1013.23 1013.30 1013.36 1013.41 1013.48 1013.56 1013.64 1013.73 1013.80 1013.85 1013.86 1013.82
1019.92 1019.46 1018.93 1018.37 1017.79 1017.23 1016.70 1016.24 1015.85 1015.54 1015.31 1015.13 1014.99 1014.88 1014.76 1014.61 1014.44 1014.22 1013.96 1013.68 1013.39 1013.12 1012.88 1012.69 1012.57 1012.50 1012.49 1012.52 1012.57 1012.64 1012.70 1012.75 1012.78 1012.82 1012.86 1012.92 1013.00 1013.11 1013.24 1013.37 1013.50 1013.59 1013.64 1013.63
1019.58 1019.07 1018.50 1017.92 1017.36 1016.82 1016.35 1015.95 1015.63 1015.39 1015.21 1015.07 1014.95 1014.84 1014.70 1014.52 1014.29 1014.03 1013.73 1013.42 1013.11 1012.84 1012.62 1012.46 1012.35 1012.31 1012.31 1012.33 1012.36 1012.39 1012.40 1012.39 1012.38 1012.37 1012.37 1012.41 1012.49 1012.61 1012.76 1012.93 1013.08 1013.21 1013.29 1013.31
1019.13 1018.59 1018.03 1017.48 1016.96 1016.49 1016.09 1015.76 1015.50 1015.30 1015.15 1015.01 1014.88 1014.72 1014.52 1014.28 1013.99 1013.67 1013.34 1013.01 1012.71 1012.46 1012.28 1012.16 1012.11 1012.10 1012.12 1012.15 1012.16 1012.16 1012.12 1012.06 1011.98 1011.92 1011.88 1011.88 1011.94 1012.05 1012.20 1012.37 1012.55 1012.71 1012.82 1012.89
1018.55 1018.02 1017.50 1017.01 1016.57 1016.19 1015.88 1015.63 1015.42 1015.25 1015.09 1014.93 1014.74 1014.51 1014.23 1013.91 1013.55 1013.18 1012.81 1012.48 1012.20 1012.00 1011.87 1011.81 1011.82 1011.86 1011.91 1011.95 1011.96 1011.92 1011.84 1011.72 1011.58 1011.45 1011.36 1011.31 1011.33 1011.41 1011.55 1011.72 1011.91 1012.09 1012.24 1012.35
1017.85 1017.36 1016.92 1016.53 1016.19 1015.92 1015.70 1015.51 1015.35 1015.19 1015.01 1014.79 1014.52 1014.20 1013.83 1013.42 1013.00 1012.58 1012.20 1011.88 1011.64 1011.49 1011.43 1011.44 1011.51 1011.60 1011.69 1011.74 1011.74 1011.68 1011.55 1011.38 1011.18 1010.99 1010.83 1010.72 1010.69 1010.72 1010.83 1010.99 1011.18 1011.37 1011.56 1011.72
1017.09 1016.67 1016.32 1016.04 1015.82 1015.66 1015.53 1015.40 1015.27 1015.10 1014.88 1014.59 1014.24 1013.83 1013.37 1012.89 1012.41 1011.96 1011.58 1011.29 1011.09 1011.00 1011.01 1011.08 1011.21 1011.34 1011.46 1011.52 1011.51 1011.42 1011.26 1011.04 1010.79 1010.54 1010.31 1010.14 1010.05 1010.03 1010.09 1010.22 1010.39 1010.59 1010.80 1011.01
1016.32 1015.98 1015.74 1015.58 1015.48 1015.42 1015.36 1015.29 1015.16 1014.97 1014.70 1014.35 1013.92 1013.43 1012.90 1012.36 1011.85 1011.40 1011.03 1010.77 1010.62 1010.59 1010.65 1010.78 1010.95 1011.11 1011.24 1011.31 1011.29 1011.18 1010.99 1010.73 1010.43 1010.13 1009.85 1009.62 1009.46 1009.38 1009.39 1009.46 1009.60 1009.78 1009.99 1010.23
1015.64 1015.40 1015.27 1015.21 1015.22 1015.23 1015.23 1015.18 1015.05 1014.83 1014.51 1014.10 1013.60 1013.05 1012.47 1011.91 1011.39 1010.94 1010.60 1010.38 1010.28 1010.29 1010.39 1010.55 1010.73 1010.91 1011.04 1011.09 1011.06 1010.94 1010.73 1010.45 1010.13 1009.79 1009.47 1009.20 1008.98 1008.83 1008.77 1008.78 1008.85 1008.99 1009.18 1009.41
1015.12 1014.98 1014.95 1014.99 1015.06 1015.13 1015.16 1015.11 1014.96 1014.70 1014.33 1013.87 1013.32 1012.73 1012.13 1011.56 1011.05 1010.64 1010.33 1010.14 1010.07 1010.10 1010.22 1010.38 1010.56 1010.72 1010.84 1010.88 1010.83 1010.70 1010.48 1010.20 1009.88 1009.53 1009.19 1008.88 1008.61 1008.40 1008.26 1008.20 1008.20 1008.27 1008.40 1008.60
1014.82 1014.77 1014.81 1014.92 1015.05 1015.14 1015.17 1015.10 1014.92 1014.61 1014.19 1013.69 1013.11 1012.50 1011.90 1011.35 1010.86 1010.47 1010.19 1010.03 1009.97 1010.01 1010.11 1010.25 1010.39 1010.52 1010.61 1010.62 1010.57 1010.43 1010.23 1009.96 1009.65 1009.32 1008.98 1008.65 1008.35 1008.09 1007.88 1007.73 1007.64 1007.63 1007.69 1007.82
1014.73 1014.76 1014.87 1015.02 1015.16 1015.25 1015.25 1015.14 1014.91 1014.56 1014.10 1013.56 1012.97 1012.36 1011.77 1011.24 1010.78 1010.42 1010.16 1010.00 1009.93 1009.94 1010.01 1010.10 1010.19 1010.27 1010.31 1010.30 1010.24 1010.11 1009.93 1009.70 1009.43 1009.12 1008.80 1008.48 1008.16 1007.85 1007.58 1007.36 1007.18 1007.08 1007.05 1007.11
1014.83 1014.92 1015.07 1015.23 1015.36 1015.41 1015.37 1015.21 1014.92 1014.52 1014.02 1013.46 1012.86 1012.27 1011.70 1011.20 1010.77 1010.42 1010.17 1010.00 1009.91 1009.87 1009.87 1009.89 1009.92 1009.93 1009.93 1009.89 1009.82 1009.71 1009.56 1009.37 1009.14 1008.89 1008.60 1008.29 1007.97 1007.64 1007.33 1007.03 1006.78 1006.59 1006.48 1006.46
1015.03 1015.16 1015.32 1015.47 1015.57 1015.57 1015.46 1015.24 1014.90 1014.45 1013.93 1013.35 1012.76 1012.18 1011.65 1011.17 1010.76 1010.42 1010.16 1009.97 1009.83 1009.73 1009.66 1009.60 1009.55 1009.50 1009.44 1009.37 1009.29 1009.20 1009.08 1008.94 1008.77 1008.56 1008.32 1008.04 1007.73 1007.39 1007.05 1006.71 1006.40 1006.14 1005.96 1005.88
1015.25 1015.40 1015.54 1015.66 1015.69 1015.63 1015.46 1015.17 1014.78 1014.30 1013.76 1013.18 1012.61 1012.05 1011.54 1011.09 1010.70 1010.37 1010.09 1009.86 1009.67 1009.50 1009.35 1009.21 1009.09 1008.97 1008.86 1008.76 1008.67 1008.59 1008.50 1008.40 1008.28 1008.12 1007.92 1007.67 1007.38 1007.05 1006.69 1006.33 1005.99 1005.69 1005.47 1005.34
1015.40 1015.53 1015.63 1015.69 1015.66 1015.53 1015.28 1014.94 1014.50 1014.00 1013.45 1012.89 1012.34 1011.82 1011.34 1010.91 1010.53 1010.20 1009.91 1009.65 1009.40 1009.17 1008.94 1008.73 1008.54 1008.36 1008.21 1008.08 1007.98 1007.90 1007.83 1007.76 1007.67 1007.55 1007.38 1007.17 1006.89 1006.58 1006.23 1005.87 1005.52 1005.21 1004.98 1004.85
1015.39 1015.48 1015.53 1015.51 1015.40 1015.19 1014.89 1014.50 1014.04 1013.52 1012.99 1012.45 1011.93 1011.45 1011.01 1010.61 1010.25 1009.92 1009.61 1009.32 1009.03 1008.74 1008.46 1008.19 1007.93 1007.71 1007.52 1007.36 1007.25 1007.16 1007.10 1007.04 1006.97 1006.87 1006.73 1006.54 1006.29 1006.00 1005.67 1005.33 1005.00 1004.72 1004.51 1004.39
1015.21 1015.23 1015.20 1015.10 1014.91 1014.64 1014.28 1013.85 1013.38 1012.87 1012.36 1011.86 1011.38 1010.94 1010.54 1010.17 1009.84 1009.51 1009.20 1008.88 1008.56 1008.24 1007.91 1007.60 1007.30 1007.04 1006.82 1006.65 1006.51 1006.42 1006.35 1006.29 1006.23 1006.14 1006.01 1005.84 1005.61 1005.35 1005.05 1004.75 1004.47 1004.24 1004.07 1004.00
1014.82 1014.77 1014.65 1014.47 1014.21 1013.88 1013.48 1013.04 1012.56 1012.08 1011.60 1011.14 1010.71 1010.32 1009.96 1009.63 1009.31 1009.00 1008.68 1008.35 1008.02 1007.67 1007.32 1006.98 1006.66 1006.38 1006.14 1005.95 1005.80 1005.70 1005.62 1005.56 1005.49 1005.41 1005.29 1005.13 1004.93 1004.70 1004.45 1004.21 1003.98 1003.81 1003.72 1003.71
1014.26 1014.12 1013.93 1013.67 1013.35 1012.97 1012.55 1012.10 1011.64 1011.19 1010.75 1010.34 1009.97 1009.62 1009.30 1009.00 1008.70 1008.40 1008.08 1007.75 1007.41 1007.05 1006.69 1006.34 1006.01 1005.72 1005.48 1005.28 1005.13 1005.02 1004.93 1004.87 1004.80 1004.72 1004.61 1004.47 1004.31 1004.12 1003.93 1003.75 1003.60 1003.51 1003.49 1003.55
1013.54 1013.33 1013.07 1012.76 1012.39 1011.99 1011.56 1011.12 1010.69 1010.27 1009.88 1009.52 1009.19 1008.88 1008.60 1008.32 1008.03 1007.74 1007.42 1007.09 1006.74 1006.38 1006.02 1005.67 1005.35 1005.06 1004.82 1004.63 1004.48 1004.38 1004.30 1004.24 1004.18 1004.11 1004.02 1003.92 1003.80 1003.67 1003.55 1003.44 1003.38 1003.37 1003.42 1003.56
1012.69 1012.43 1012.12 1011.76 1011.38 1010.97 1010.55 1010.14 1009.74 1009.37 1009.02 1008.71 1008.42 1008.15 1007.88 1007.61 1007.34 1007.04 1006.72 1006.38 1006.02 1005.66 1005.30 1004.96 1004.65 1004.38 1004.16 1003.99 1003.86 1003.77 1003.71 1003.67 1003.64 1003.60 1003.56 1003.50 1003.44 1003.38 1003.34 1003.31 1003.33 1003.40 1003.54 1003.74
1011.72 1011.43 1011.09 1010.72 1010.34 1009.94 1009.56 1009.18 1008.83 1008.51 1008.21 1007.94 1007.68 1007.43 1007.17 1006.90 1006.61 1006.30 1005.97 1005.61 1005.25 1004.88 1004.53 1004.21 1003.92 1003.67 1003.48 1003.34 1003.25 1003.20 1003.18 1003.18 1003.19 1003.21 1003.22 1003.23 1003.24 1003.26 1003.30 1003.36 1003.46 1003.61 1003.81 1004.07
1010.64 1010.33 1010.00 1009.64 1009.28 1008.93 1008.58 1008.26 1007.97 1007.69 1007.44 1007.19 1006.95 1006.71 1006.45 1006.16 1005.86 1005.52 1005.16 1004.79 1004.41 1004.05 1003.70 1003.40 1003.13 1002.93 1002.77 1002.68 1002.64 1002.65 1002.69 1002.75 1002.82 1002.91 1003.00 1003.09 1003.18 1003.28 1003.40 1003.55 1003.73 1003.94 1004.20 1004.50
Thickness
5537 5538 5535 5536 5537 5535 5530 5537 5540 5557 5558 5566 5566 5563 5562 5561 5561 5559 5559 5556 5553 5552 5550 5546 5542 5539 5537 5534 5530 5527 5525 5524 5523 5521 5519 5518 5517 5516 5515 5514 5513 5512 5511 5510
5530 5534 5531 5531 5539 5538 5537 5538 5541 5546 5552 5563 5561 5557 5556 5558 5558 5557 5557 5554 5552 5549 5547 5543 5540 5536 5533 5530 5527 5523 5521 5519 5517 5515 5513 5512 5511 5510 5509 5507 5506 5505 5504 5502
5534 5532 5529 5544 5555 5547 5542 5543 5543 5545 5555 5557 5553 5552 5553 5553 5553 5553 5553 5551 5549 5547 5544 5541 5537 5533 5530 5527 5523 5519 5517 5515 5512 5510 5508 5507 5505 5504 5503 5501 5500 5498 5497 5495
5521 5525 5531 5562 5550 5548 5544 5545 5543 5544 5548 5548 5545 5546 5546 5547 5547 5548 5547 5546 5544 5543 5540 5537 5533 5529 5526 5522 5518 5515 5513 5511 5508 5506 5504 5501 5500 5498 5497 5496 5494 5492 5491 5489
5511 5521 5539 5552 5544 5537 5537 5545 5544 5539 5540 5540 5538 5537 5547 5546 5541 5540 5540 5539 5538 5537 5535 5532 5529 5525 5521 5517 5514 5511 5509 5507 5505 5502 5499 5497 5495 5493 5491 5490 5488 5486 5485 5483
5504 5507 5526 5548 5535 5528 5529 5541 5541 5534 5533 5532 5529 5537 5545 5539 5534 5534 5533 5532 5531 5530 5529 5526 5524 5519 5515 5513 5511 5509 5507 5503 5500 5497 5495 5493 5491 5488 5486 5484 5483 5481 5479 5477
5496 5500 5525 5536 5523 5518 5528 5539 5531 5527 5527 5525 5525 5530 5532 5529 5527 5526 5526 5526 5524 5523 5522 5521 5518 5514 5511 5510 5508 5506 5502 5498 5495 5492 5490 5488 5486 5483 5481 5478 5477 5475 5472 5470
5491 5491 5515 5524 5512 5519 5529 5524 5520 5519 5518 5517 5517 5518 5519 5519 5519 5519 5520 5520 5518 5517 5517 5515 5511 5508 5507 5506 5504 5499 5496 5493 5491 5488 5485 5482 5480 5478 5475 5473 5471 5469 5466 5464
5502 5515 5520 5511 5513 5514 5510 5509 5510 5509 5509 5507 5508 5510 5511 5512 5513 5513 5513 5513 5511 5510 5510 5509 5505 5503 5503 5502 5498 5494 5491 5488 5486 5483 5480 5477 5475 5473 5470 5467 5466 5464 5461 5459
5489 5504 5507 5504 5503 5501 5498 5498 5500 5499 5498 5497 5498 5501 5503 5505 5506 5507 5507 5506 5504 5503 5503 5503 5501 5497 5497 5494 5490 5487 5486 5484 5481 5478 5475 5472 5469 5467 5465 5463 5461 5459 5456 5453
5482 5494 5495 5499 5496 5494 5493 5491 5490 5489 5488 5488 5489 5492 5494 5496 5498 5499 5499 5499 5497 5496 5497 5497 5495 5492 5490 5487 5484 5481 5480 5477 5475 5472 5469 5467 5464 5462 5460 5459 5456 5454 5451 5447
5485 5491 5486 5492 5489 5484 5482 5482 5481 5480 5482 5482 5481 5482 5484 5487 5489 5490 5491 5491 5489 5488 5488 5489 5487 5485 5483 5480 5477 5475 5474 5472 5469 5466 5464 5461 5459 5455 5452 5450 5447 5444 5442 5439
5476 5476 5474 5476 5474 5472 5470 5470 5470 5470 5470 5472 5473 5473 5474 5476 5479 5480 5481 5481 5481 5481 5481 5481 5480 5479 5477 5473 5470 5469 5468 5466 5463 5460 5458 5455 5452 5450 5447 5443 5438 5436 5433 5430
5460 5458 5460 5463 5462 5460 5459 5459 5459 5459 5460 5461 5462 5463 5464 5466 5468 5470 5471 5472 5472 5472 5472 5472 5472 5472 5470 5466 5463 5462 5461 5459 5456 5455 5452 5449 5446 5443 5441 5438 5435 5431 5427 5423
5449 5445 5447 5449 5448 5448 5447 5446 5447 5449 5451 5451 5452 5452 5454 5455 5458 5461 5462 5462 5462 5463 5464 5464 5464 5464 5462 5459 5457 5455 5454 5452 5449 5447 5444 5441 5438 5435 5433 5430 5428 5426 5421 5417
5435 5434 5433 5434 5435 5436 5435 5436 5436 5439 5440 5441 5442 5443 5444 5446 5448 5450 5451 5451 5451 5454 5455 5455 5456 5457 5454 5451 5449 5447 5446 5444 5441 5439 5436 5433 5430 5427 5425 5423 5420 5418 5415 5411
5421 5423 5423 5423 5424 5425 5425 5425 5426 5427 5428 5430 5431 5432 5433 5435 5437 5440 5441 5442 5442 5444 5446 5446 5447 5447 5445 5443 5441 5440 5438 5436 5432 5429 5428 5425 5423 5420 5418 5415 5413 5410 5408 5404
5407 5408 5408 5408 5409 5411 5413 5414 5414 5415 5417 5418 5419 5420 5422 5424 5427 5430 5431 5431 5432 5435 5437 5437 5437 5436 5435 5434 5432 5431 5429 5428 5425 5423 5421 5418 5415 5413 5410 5408 5406 5403 5400 5396
5393 5394 5396 5396 5397 5397 5399 5401 5403 5404 5406 5406 5407 5409 5412 5414 5416 5418 5419 5420 5422 5426 5430 5429 5427 5426 5426 5425 5423 5422 5421 5419 5417 5415 5413 5410 5407 5404 5402 5400 5398 5396 5392 5389
5382 5382 5384 5385 5386 5386 5389 5391 5392 5394 5396 5396 5397 5400 5403 5406 5407 5408 5409 5412 5415 5418 5419 5418 5418 5418 5417 5417 5414 5413 5412 5411 5409 5407 5405 5403 5401 5398 5395 5393 5391 5388 5385 5382
5371 5372 5373 5375 5376 5378 5379 5381 5382 5384 5386 5386 5387 5390 5393 5396 5397 5397 5399 5405 5410 5408 5407 5407 5408 5409 5408 5407 5405 5405 5404 5403 5402 5400 5398 5396 5394 5391 5389 5386 5383 5380 5378 5375
5360 5361 5363 5364 5366 5369 5371 5372 5372 5373 5375 5377 5379 5380 5382 5385 5387 5389 5391 5394 5398 5397 5397 5398 5399 5399 5398 5397 5397 5396 5395 5395 5394 5392 5391 5389 5387 5385 5383 5380 5377 5374 5371 5368
5350 5351 5352 5354 5355 5358 5360 5362 5363 5363 5365 5367 5369 5370 5372 5375 5377 5378 5383 5387 5386 5386 5387 5389 5390 5389 5388 5388 5388 5387 5387 5386 5386 5385 5383 5382 5380 5378 5376 5373 5371 5368 5364 5361
5341 5342 5343 5344 5344 5346 5350 5355 5355 5355 5356 5358 5360 5361 5362 5364 5369 5371 5372 5374 5375 5376 5377 5380 5380 5380 5379 5379 5379 5379 5378 5378 5378 5377 5375 5374 5373 5371 5369 5366 5364 5361 5358 5354
5331 5332 5333 5333 5335 5340 5344 5344 5345 5347 5349 5351 5354 5355 5354 5355 5357 5362 5363 5364 5365 5366 5369 5371 5372 5372 5371 5371 5371 5371 5371 5370 5369 5368 5367 5366 5365 5363 5362 5359 5356 5353 5350 5347
5323 5325 5328 5329 5330 5332 5334 5334 5336 5340 5341 5343 5347 5349 5349 5349 5349 5351 5353 5355 5357 5358 5360 5362 5363 5363 5363 5363 5363 5363 5363 5362 5361 5361 5359 5358 5357 5356 5354 5352 5349 5346 5343 5340
5316 5317 5319 5322 5325 5325 5325 5326 5328 5331 5333 5335 5338 5341 5342 5342 5343 5344 5345 5347 5349 5351 5353 5354 5355 5355 5355 5356 5355 5355 5355 5355 5354 5353 5352 5351 5350 5348 5346 5344 5341 5338 5335 5332